Waarnemingen

Advertentie
Mijn weer
Leutkirch-Herlazhofen, Duitsland (10945): temperatuur & dauwpunt: 20.05.2017 16:00:00 - 26.05.2017 16:00:00 (CEST)Leutkirch-Herlazhofen, Duitsland (10945): temperatuur 5cm & temperatuur -5cm: 20.05.2017 16:00:00 - 26.05.2017 16:00:00 (CEST)Leutkirch-Herlazhofen, Duitsland (10945): temperatuur -20cm & temperatuur -100cm: 20.05.2017 16:00:00 - 26.05.2017 16:00:00 (CEST)Leutkirch-Herlazhofen, Duitsland (10945): windsnelheid & windstoten: 20.05.2017 16:00:00 - 26.05.2017 16:00:00 (CEST)Leutkirch-Herlazhofen, Duitsland (10945): windrichting: 20.05.2017 16:00:00 - 26.05.2017 16:00:00 (CEST)Leutkirch-Herlazhofen, Duitsland (10945): luchtdruk: 20.05.2017 16:00:00 - 26.05.2017 16:00:00 (CEST)Leutkirch-Herlazhofen, Duitsland (10945): zicht: 20.05.2017 16:00:00 - 26.05.2017 16:00:00 (CEST)Leutkirch-Herlazhofen, Duitsland (10945): Zonneschijnduur: 20.05.2017 16:00:00 - 26.05.2017 16:00:00 (CEST)Leutkirch-Herlazhofen, Duitsland (10945): neerslag: 20.05.2017 16:00:00 - 26.05.2017 16:00:00 (CEST)
Datum & Tijd tt [°C] td [°C] tt 5cm [°C] tt -5cm [°C] tt -20cm [°C] tt -100cm [°C] ff [km/u] ff [kn] fx [km/u] fx [kn] dd ppp [hPa] vv [km] sd [min] rr [mm]
26.05.2017 16:00:00 21,7 7,8 26,2 26,6 17,6 12,0 18 10 35 19 NO 1016,7 16 60 0,0
26.05.2017 15:00:00 21,3 8,2 25,4 26,2 17,0 12,0 19 10 31 17 ONO 1017,3 11 60 0,0
26.05.2017 14:00:00 20,8 8,7 25,3 25,2 16,4 12,0 19 10 34 18 ONO 1018,0 11 60 0,0
26.05.2017 13:00:00 20,2 8,1 24,6 23,5 15,8 12,0 18 10 31 17 ONO 1018,5 26 60 0,0
26.05.2017 12:00:00 19,5 8,1 24,0 21,4 15,5 12,0 18 10 34 18 NO 1018,8 16 60 0,0
26.05.2017 11:00:00 18,6 8,2 22,3 19,0 15,2 12,0 14 7 32 17 ONO 1019,2 24 60 0,0
26.05.2017 10:00:00 16,9 6,9 18,7 17,2 15,1 11,9 18 10 35 19 ONO 1019,7 17 60 0,0
26.05.2017 09:00:00 15,5 7,7 17,5 15,2 15,1 11,9 15 8 24 13 ONO 1020,0 25 60 0,0
26.05.2017 08:00:00 13,3 8,4 14,8 12,5 15,4 11,9 12 6 18 10 NO 1020,2 20 60 0,0
26.05.2017 07:00:00 9,4 6,6 8,2 10,5 15,8 11,9 4 2 6 3 N 1021,2 16 59 0,0
26.05.2017 06:00:00 5,6 5,3 1,8 10,3 16,2 11,9 2 1 5 3 NW 1022,4 12 0 0,0
26.05.2017 05:00:00 6,0 5,5 2,0 10,9 16,7 11,9 2 1 5 3 NW 1022,3 16 0 0,0
26.05.2017 04:00:00 5,6 4,7 2,3 11,6 17,2 11,9 4 2 5 3 NW 1022,6 21 0 0,0
26.05.2017 03:00:00 6,8 6,1 2,9 12,4 17,7 11,9 0 0 5 3 N 1022,4 21 0 0,0
26.05.2017 02:00:00 7,1 6,3 3,4 13,3 18,2 11,8 5 3 6 3 W 1022,6 24 0 0,0
26.05.2017 01:00:00 8,3 6,7 4,4 14,3 18,7 11,8 0 0 4 2 N 1022,8 40 0 0,0
26.05.2017 00:00:00 8,4 6,7 5,4 15,5 19,1 11,8 3 2 5 3 N 1023,0 40 0 0,0
25.05.2017 23:00:00 9,5 7,5 5,9 17,0 19,6 11,8 2 1 8 4 ZZO 1022,8 56 0 0,0
25.05.2017 22:00:00 12,8 7,6 8,3 18,8 19,9 11,8 5 3 10 6 ONO 1021,6 70 0 0,0
25.05.2017 21:00:00 15,4 7,7 11,9 21,0 20,1 11,8 7 4 16 8 NO 1020,4 70 59 0,0
25.05.2017 20:00:00 17,3 7,7 17,1 23,3 20,1 11,8 8 5 21 11 NNO 1019,6 57 60 0,0
25.05.2017 19:00:00 18,3 8,2 20,3 25,2 19,8 11,8 11 6 24 13 NNO 1019,4 37 52 0,0
25.05.2017 18:00:00 17,8 6,9 17,6 27,5 19,4 11,8 11 6 23 12 NNO 1019,7 70 51 0,0
25.05.2017 17:00:00 19,7 8,6 24,7 27,9 18,8 11,7 9 5 24 13 NNO 1019,2 26 43 0,0
25.05.2017 16:00:00 19,1 7,3 26,4 28,4 18,2 11,7 9 5 22 12 N 1019,5 27 51 0,0
25.05.2017 15:00:00 18,4 7,9 25,2 27,5 17,6 11,7 13 7 24 13 NW 1020,0 16 55 0,0
25.05.2017 14:00:00 18,3 9,6 23,2 25,1 17,1 11,7 8 4 29 16 NNW 1020,4 37 39 0,0
25.05.2017 13:00:00 17,1 9,3 21,5 23,3 16,6 11,7 8 5 19 11 NNO 1020,9 36 22 0,0
25.05.2017 12:00:00 16,6 7,4 18,7 23,4 16,2 11,7 7 4 16 9 NO 1021,4 41 36 0,0
25.05.2017 11:00:00 16,6 8,2 22,4 21,4 15,9 11,7 11 6 16 9 NO 1021,5 22 49 0,0
25.05.2017 10:00:00 15,6 8,8 16,8 19,1 15,7 11,7 6 4 17 9 O 1021,7 26 41 0,0
25.05.2017 09:00:00 15,1 11,5 16,4 16,7 15,7 11,6 8 4 11 6 NNO 1021,5 10 60 0,0
25.05.2017 08:00:00 13,0 11,1 13,2 14,4 15,9 11,6 4 2 6 4 NO 1022,0 8 45 0,0
25.05.2017 07:00:00 10,3 10,3 10,2 13,0 16,2 11,6 0 0 4 2 N 1022,9 2,3 0 0,0
25.05.2017 06:00:00 8,9 8,9 6,7 13,1 16,5 11,6 0 0 4 2 N 1023,4 0,1 0 0,0
25.05.2017 05:00:00 10,7 10,5 9,0 14,1 16,8 11,6 2 1 5 3 ZO 1022,7 3,3 0 0,0
25.05.2017 04:00:00 12,0 11,2 11,0 14,5 17,1 11,6 4 2 10 6 ZZO 1022,8 10 0 0,0
25.05.2017 03:00:00 11,6 11,3 10,8 14,7 17,4 11,6 6 4 10 5 Z 1023,0 6 0 0,0
25.05.2017 02:00:00 11,4 10,7 9,5 15,6 17,7 11,6 4 2 7 4 Z 1023,4 6 0 0,1
25.05.2017 01:00:00 12,4 11,7 11,7 16,4 18,0 11,5 2 1 17 9 ONO 1023,4 4,9 0 0,8
25.05.2017 00:00:00 13,9 10,6 13,2 17,2 18,3 11,5 13 7 20 11 NO 1023,0 20 0 0,0
24.05.2017 23:00:00 13,5 11,6 12,8 17,8 18,6 11,5 3 1 5 3 ZZW 1023,1 28 0 0,0
24.05.2017 22:00:00 14,3 10,9 13,0 18,6 18,8 11,5 3 2 6 4 O 1022,7 40 0 0,0
24.05.2017 21:00:00 15,8 9,9 14,3 19,7 19,0 11,5 4 2 17 9 NO 1022,0 70 0 0,0
24.05.2017 20:00:00 16,7 9,3 16,0 21,1 19,1 11,5 8 4 20 11 N 1021,8 70 0 0,0
24.05.2017 19:00:00 17,9 8,7 17,9 22,9 19,0 11,5 10 5 23 12 N 1021,0 70 0 0,0
24.05.2017 18:00:00 18,6 8,5 19,6 24,1 18,8 11,5 12 6 22 12 NNW 1020,9 32 0 0,0
24.05.2017 17:00:00 19,0 8,3 20,8 25,6 18,5 11,5 14 7 25 13 NW 1020,9 30 12 0,0
24.05.2017 16:00:00 19,2 8,0 22,7 26,6 17,9 11,5 12 7 24 13 NW 1021,1 56 35 0,0
24.05.2017 15:00:00 18,8 7,8 23,4 26,4 17,3 11,4 16 9 26 14 NW 1021,5 20 41 0,0
24.05.2017 14:00:00 19,2 9,9 25,7 26,6 16,7 11,4 9 5 31 17 W 1021,5 39 55 0,0
24.05.2017 13:00:00 17,9 8,7 22,0 24,8 16,2 11,4 13 7 23 12 WNW 1022,4 28 58 0,0
24.05.2017 12:00:00 17,1 8,7 21,1 22,9 15,7 11,4 13 7 27 14 WNW 1023,0 20 57 0,0
24.05.2017 11:00:00 16,8 9,5 21,4 19,8 15,6 11,4 9 5 19 10 ZW 1022,9 22 33 0,0
24.05.2017 10:00:00 15,1 8,3 18,2 17,0 15,6 11,4 10 5 18 10 NW 1023,7 48 10 0,0
24.05.2017 09:00:00 14,1 8,8 16,0 15,3 15,7 11,4 10 5 15 8 WNW 1023,8 41 1 0,0
24.05.2017 08:00:00 13,6 8,5 14,0 14,6 15,8 11,4 8 5 22 12 NW 1023,5 40 0 0,0
24.05.2017 07:00:00 13,6 10,2 13,0 14,4 16,0 11,4 5 3 17 9 N 1022,8 20 0 0,0
24.05.2017 06:00:00 14,0 10,7 13,0 14,6 16,2 11,3 7 4 15 8 WNW 1022,4 19 0 0,0
24.05.2017 05:00:00 14,1 11,5 12,9 14,8 16,5 11,3 4 2 11 6 W 1022,0 39 0 0,0
24.05.2017 04:00:00 14,8 11,3 13,3 15,0 16,7 11,3 8 4 9 5 ZW 1021,4 61 0 0,0
24.05.2017 03:00:00 14,4 11,0 11,8 15,3 17,0 11,3 6 3 9 5 W 1021,3 56 0 0,0
24.05.2017 02:00:00 13,1 11,3 11,9 15,6 17,3 11,3 4 2 6 4 ZO 1021,7 57 0 0,0
24.05.2017 01:00:00 14,1 10,9 13,0 15,7 17,6 11,3 4 2 9 5 OZO 1021,4 70 0 0,0
24.05.2017 00:00:00 15,0 10,9 12,2 16,6 17,9 11,3 6 3 10 5 ZZO 1021,1 70 0 0,0
23.05.2017 23:00:00 15,8 11,2 14,1 17,5 18,2 11,3 6 3 14 8 ZO 1020,8 70 0 0,0
23.05.2017 22:00:00 16,6 10,7 14,0 18,6 18,5 11,3 8 5 23 12 WZW 1019,9 70 0 0,0
23.05.2017 21:00:00 17,6 12,8 15,9 20,1 18,6 11,3 8 4 13 7 WZW 1019,0 70 0 0,0
23.05.2017 20:00:00 19,1 14,1 18,1 21,4 18,7 11,3 8 4 14 8 WZW 1018,2 70 1 0,0
23.05.2017 19:00:00 19,6 13,4 19,2 22,6 18,6 11,3 5 3 36 19 ZZW 1017,7 70 2 0,2
23.05.2017 18:00:00 21,3 11,3 21,1 24,9 18,2 11,3 19 10 30 16 WZW 1017,2 40 33 0,0
23.05.2017 17:00:00 21,8 9,8 22,8 26,2 17,7 11,2 24 13 36 19 WZW 1017,2 22 43 0,0
23.05.2017 16:00:00 22,4 9,2 26,1 26,7 17,1 11,2 21 12 38 20 WZW 1017,0 25 46 0,0
23.05.2017 15:00:00 21,7 10,3 23,7 26,9 16,4 11,2 23 12 39 21 ZW 1017,1 16 54 0,0
23.05.2017 14:00:00 21,6 11,4 25,5 25,4 15,8 11,2 24 13 37 20 WZW 1017,5 22 54 0,0
23.05.2017 13:00:00 20,4 11,0 22,9 24,3 15,2 11,2 22 12 34 18 W 1018,0 13 50 0,0
23.05.2017 12:00:00 19,7 10,7 22,4 22,7 14,6 11,2 20 11 31 17 WZW 1018,3 30 52 0,0
23.05.2017 11:00:00 19,1 11,0 21,3 20,1 14,3 11,2 19 10 29 16 ZW 1018,5 35 56 0,0
23.05.2017 10:00:00 17,9 10,6 19,0 17,5 14,1 11,2 22 12 31 17 ZW 1018,8 27 48 0,0
23.05.2017 09:00:00 16,1 10,5 16,1 14,9 14,1 11,2 16 9 27 14 WZW 1019,0 40 38 0,0
23.05.2017 08:00:00 15,5 10,0 15,8 12,8 14,3 11,2 16 8 22 12 ZW 1018,5 25 34 0,0
23.05.2017 07:00:00 13,3 9,4 12,3 11,7 14,5 11,2 10 5 13 7 ZW 1018,7 62 1 0,0
23.05.2017 06:00:00 12,4 8,9 9,9 11,5 14,8 11,2 9 5 15 8 ZW 1018,6 56 0 0,0
23.05.2017 05:00:00 10,8 8,6 9,0 11,6 15,2 11,2 9 5 11 6 Z 1018,8 45 0 0,0
23.05.2017 04:00:00 9,4 7,3 7,2 11,8 15,6 11,2 6 3 8 4 OZO 1019,0 53 0 0,0
23.05.2017 03:00:00 9,4 7,5 6,5 12,0 16,0 11,2 3 2 8 4 Z 1019,0 61 0 0,0
23.05.2017 02:00:00 9,1 7,1 6,4 12,7 16,4 11,2 4 2 8 5 ZZO 1019,0 53 0 0,0
23.05.2017 01:00:00 8,9 7,1 6,2 13,6 16,9 11,2 5 3 8 5 Z 1019,0 49 0 0,0
23.05.2017 00:00:00 10,0 8,1 7,2 14,8 17,3 11,2 3 2 6 3 ZZW 1018,5 45 0 0,0
22.05.2017 23:00:00 10,9 8,9 8,0 16,2 17,6 11,2 4 2 6 3 O 1018,1 39 0 0,0
22.05.2017 22:00:00 12,1 9,3 8,4 17,9 17,9 11,2 0 0 6 3 N 1017,5 42 0 0,0
22.05.2017 21:00:00 16,8 9,2 12,1 20,1 18,0 11,2 4 2 11 6 Z 1015,8 69 24 0,0
22.05.2017 20:00:00 20,1 8,8 18,7 22,3 17,9 11,2 8 5 20 11 W 1014,7 61 60 0,0
22.05.2017 19:00:00 20,8 7,6 21,0 23,8 17,6 11,2 15 8 29 16 WZW 1014,6 17 60 0,0
22.05.2017 18:00:00 21,4 6,8 22,4 24,9 17,2 11,2 22 12 36 19 WZW 1014,7 9 60 0,0
22.05.2017 17:00:00 21,5 7,3 23,6 25,9 16,6 11,2 24 13 40 22 WZW 1015,1 9 60 0,0
22.05.2017 16:00:00 21,5 7,2 24,1 26,7 15,9 11,2 22 12 33 18 W 1015,2 13 60 0,0
22.05.2017 15:00:00 21,0 8,5 24,3 26,2 15,1 11,2 21 11 32 17 ZW 1015,8 12 60 0,0
22.05.2017 14:00:00 20,1 7,5 23,8 25,4 14,3 11,2 20 11 29 16 WZW 1016,6 14 60 0,0
22.05.2017 13:00:00 19,3 7,3 22,9 24,1 13,5 11,2 21 11 32 17 W 1017,1 19 60 0,0
22.05.2017 12:00:00 17,7 10,2 21,6 22,0 12,9 11,2 14 8 20 11 ZW 1017,8 16 60 0,0
22.05.2017 11:00:00 16,6 9,5 20,7 19,2 12,4 11,2 11 6 16 9 W 1018,2 17 60 0,0
22.05.2017 10:00:00 15,2 8,4 18,0 16,1 12,2 11,2 13 7 19 11 ZZW 1018,7 20 60 0,0
22.05.2017 09:00:00 13,7 8,9 16,5 13,4 12,2 11,2 3 2 7 4 WNW 1019,2 27 60 0,0
22.05.2017 08:00:00 11,5 8,1 13,0 10,2 12,4 11,2 2 1 5 3 O 1019,9 38 60 0,0
22.05.2017 07:00:00 7,3 5,7 7,0 8,2 12,7 11,2 0 0 5 3 N 1020,9 7 46 0,0
22.05.2017 06:00:00 4,2 3,8 2,1 8,2 13,0 11,1 0 0 4 2 N 1021,8 13 0 0,0
22.05.2017 05:00:00 5,6 5,5 1,8 8,9 13,3 11,1 3 1 6 3 O 1021,1 7 0 0,0
22.05.2017 04:00:00 7,1 6,4 3,7 9,7 13,6 11,2 0 0 13 7 N 1021,0 11 0 0,0
22.05.2017 03:00:00 7,1 6,2 5,1 10,0 14,0 11,2 3 2 10 5 N 1021,6 14 0 0,0
22.05.2017 02:00:00 9,9 7,0 6,6 10,7 14,3 11,2 9 5 13 7 ONO 1020,9 33 0 0,0
22.05.2017 01:00:00 10,3 7,2 6,2 11,5 14,6 11,2 5 3 18 10 N 1021,5 38 0 0,0
22.05.2017 00:00:00 10,8 7,4 8,2 12,4 14,9 11,2 10 5 17 9 NNO 1021,9 34 0 0,0
21.05.2017 23:00:00 11,7 7,7 8,7 13,5 15,2 11,2 8 4 19 11 NO 1022,0 46 0 0,0
21.05.2017 22:00:00 13,4 7,9 12,0 14,7 15,3 11,2 12 6 22 12 NO 1021,6 59 0 0,0
21.05.2017 21:00:00 14,3 7,7 12,7 16,0 15,4 11,2 10 5 29 16 NO 1021,4 70 27 0,0
21.05.2017 20:00:00 15,9 7,7 15,1 17,8 15,2 11,2 15 8 31 17 NO 1020,8 34 50 0,0
21.05.2017 19:00:00 16,8 7,4 16,1 19,6 15,0 11,2 14 8 30 16 ONO 1020,7 62 51 0,0
21.05.2017 18:00:00 17,2 6,5 18,5 20,3 14,6 11,2 22 12 35 19 NO 1021,0 25 60 0,0
21.05.2017 17:00:00 17,0 6,6 19,0 20,4 14,2 11,2 21 12 34 19 ONO 1021,7 10 60 0,0
21.05.2017 16:00:00 16,7 6,4 19,8 18,9 13,9 11,2 20 11 34 18 NO 1022,7 44 10 0,0
21.05.2017 15:00:00 15,7 6,5 16,5 19,4 13,4 11,2 19 10 36 20 NO 1023,2 70 34 0,0
21.05.2017 14:00:00 16,9 7,6 20,2 19,1 12,9 11,2 18 10 32 18 NO 1023,1 23 36 0,0
21.05.2017 13:00:00 15,2 5,8 16,5 19,0 12,4 11,2 18 10 32 17 NO 1024,2 56 52 0,0
21.05.2017 12:00:00 14,8 6,8 16,4 17,3 11,9 11,2 15 8 32 18 ONO 1024,7 21 49 0,0
21.05.2017 11:00:00 14,2 7,1 16,7 16,2 11,5 11,2 15 8 27 15 ONO 1025,1 26 54 0,0
21.05.2017 10:00:00 12,9 7,6 16,0 13,8 11,3 11,2 14 7 24 13 NO 1025,8 43 56 0,0
21.05.2017 09:00:00 11,4 7,8 13,1 11,4 11,3 11,2 13 7 23 12 NO 1026,3 20 60 0,0
21.05.2017 08:00:00 9,6 7,5 10,3 8,9 11,5 11,2 6 4 10 6 N 1027,0 18 60 0,0
21.05.2017 07:00:00 4,8 4,7 5,1 6,9 11,8 11,2 2 1 4 2 W 1028,4 4,3 38 0,0
21.05.2017 06:00:00 2,5 2,4 0,3 7,0 12,1 11,2 2 1 4 2 ZZW 1028,9 16 0 0,0
21.05.2017 05:00:00 3,1 3,1 0,7 7,5 12,4 11,2 0 0 4 2 N 1028,8 0,1 0 0,0
21.05.2017 04:00:00 4,6 4,6 1,5 8,2 12,7 11,2 2 1 4 2 ZZO 1028,5 4,8 0 0,0
21.05.2017 03:00:00 5,5 5,5 2,4 9,1 13,0 11,2 3 2 6 3 O 1028,3 0,9 0 0,0
21.05.2017 02:00:00 6,9 6,7 4,4 10,3 13,2 11,2 4 2 7 4 NO 1027,8 18 0 0,0
21.05.2017 01:00:00 8,0 7,4 6,6 11,2 13,4 11,2 4 2 8 4 NNO 1027,6 22 0 0,0
21.05.2017 00:00:00 9,4 8,1 8,4 11,7 13,6 11,1 4 2 8 4 Z 1027,0 44 0 0,0
20.05.2017 23:00:00 9,9 8,4 9,0 12,4 13,7 11,1 5 3 10 5 O 1026,6 30 0 0,0
20.05.2017 22:00:00 10,4 8,4 9,4 12,9 13,9 11,1 5 3 8 4 O 1026,0 36 0 0,0
20.05.2017 21:00:00 11,6 7,4 10,2 13,7 13,9 11,1 4 2 7 4 O 1025,1 38 12 0,0
20.05.2017 20:00:00 12,5 7,7 11,5 14,5 14,0 11,1 4 2 8 5 ZZW 1024,3 70 0 0,0
20.05.2017 19:00:00 12,8 6,3 12,5 15,4 13,9 11,1 7 4 11 6 W 1023,6 70 0 0,0
20.05.2017 18:00:00 13,1 5,6 13,8 16,1 13,8 11,1 9 5 14 8 WNW 1023,4 70 0 0,0
20.05.2017 17:00:00 13,1 4,9 14,4 16,4 13,6 11,1 8 4 17 9 NW 1023,0 70 0 0,0
20.05.2017 16:00:00 13,3 5,9 15,0 16,5 13,4 11,1 8 5 15 8 WNW 1022,4 70 0 0,0

tt = temperatuur
td = dauwpunt
tt 5cm = temperatuur 5cm
tt -5cm = temperatuur -5cm
tt -20cm = temperatuur -20cm
tt -100cm = temperatuur -100cm
ff = windsnelheid
fx = windstoten
dd = windrichting
ppp = luchtdruk
vv = zicht
sd = Zonneschijnduur
rr = neerslag

Weerstations in de omgeving